Miscellaneous Local Product
Issued by NWS Hastings, NE

Home | Current Version | Previous Version | Graphics & Text | Print | Product List | Glossary On
Versions: 1 2 3 4 5 6 7 8 9 10 11 12 13 14 15 16 17 18 19 20 21 22 23 24 25 26 27 28 29 30 31 32 33 34 35 36 37 38 39 40 41 42 43 44 45 46 47 48 49 50
994
AXUS43 KGID 081502
MISGRI

GID CWA HOURLY WEATHER ROUNDUP
NATIONAL WEATHER SERVICE HASTINGS NE
900 AM CST THU DEC 08 2016

NOTE: "FAIR" INDICATES FEW OR NO CLOUDS BELOW 12,000 FEET WITH NO
SIGNIFICANT WEATHER AND/OR OBSTRUCTIONS TO VISIBILITY.

...SOUTH CENTRAL NEBRASKA...

CITY           SKY/WX    TMP DP  RH WIND       PRES   REMARKS
GRAND ISLAND   SUNNY     10   1  67 NW16      30.62R WCI  -7
HASTINGS       SUNNY     10   0  63 NW16      30.63R WCI  -7
KEARNEY        SUNNY      9  -2  61 N10       30.63R WCI  -6
ORD            CLEAR      9  -2  61 NW17      30.60R WCI  -9
YORK           SUNNY     10   1  67 NW20      30.61R WCI  -8
AURORA         SUNNY     10   1  65 NW21G26   30.62R WCI  -9
LEXINGTON      CLEAR      7  -1  69 NW15      30.62R WCI -11
HOLDREGE       SUNNY      8  -1  66 NW13G20   30.61R WCI  -7
HEBRON         SUNNY     12   4  68 NW12G17   30.65R WCI  -2

...NEBRASKA PANHANDLE...

CITY           SKY/WX    TMP DP  RH WIND       PRES   REMARKS
CHADRON        CLOUDY     0  -8  69 W5        30.58S WCI -10
ALLIANCE       CLOUDY    -8 -14  74 W5        30.51R WCI -19
SCOTTSBLUFF    CLOUDY    -6 -12  75 NW12      30.53S WCI -25
SIDNEY         CLOUDY    -9 -14  78 NW12      30.48F WCI -28

...WESTERN AND NORTH CENTRAL NEBRASKA...

CITY           SKY/WX    TMP DP  RH WIND       PRES   REMARKS
VALENTINE      CLEAR      4  -5  66 NW9       30.60S WCI -10
AINSWORTH      CLEAR      5  -2  73 NW14      30.59R WCI -12
ONEILL         CLEAR      8   1  70 NW22      30.59R WCI -12
BROKEN BOW     CLEAR      8  -2  63 NW20G26   30.58R WCI -11
IMPERIAL       CLOUDY    -1  -9  68 NW9       30.57S WCI -16
NORTH PLATTE   CLEAR      3  -3  76 W7        30.62R WCI  -9
MCCOOK         CLOUDY    -1  -7  75 W8        30.65R WCI -15

...EASTERN NEBRASKA...

CITY           SKY/WX    TMP DP  RH WIND       PRES   REMARKS
NORFOLK        SUNNY     10   1  67 NW20      30.58R WCI  -9
SO SIOUX CITY  MOSUNNY   13   3  64 NW21G30   30.56R WCI  -5
TEKAMAH        SUNNY     13   4  67 NW23      30.60R WCI  -6
COLUMBUS       SUNNY     10   1  67 NW18G24   30.60R WCI  -8
ALBION         SUNNY      9   1  67 NW20G25   30.59R WCI -10
OMAHA EPPLEY   MOSUNNY   14   4  64 NW16      30.60R WCI  -2
OFFUTT AFB     SUNNY     13   4  66 NW17      30.60R WCI  -3
MILLARD        SUNNY     14   4  65 NW13G25   30.60R WCI  -1
LINCOLN        SUNNY     13   2  61 NW21G26   30.64R WCI  -5
NEBRASKA CITY  SUNNY     13   1  58 NW16G23   30.60R WCI  -3
BEATRICE       SUNNY     14   4  66 NW16      30.63R WCI  -2
FALLS CITY     SUNNY     14   4  64 NW18G24   30.61R WCI  -3

...NORTHERN KANSAS...

CITY           SKY/WX    TMP DP  RH WIND       PRES   REMARKS
GOODLAND       CLOUDY     0  -8  69 NW9       30.56R WCI -15
HILL CITY      SUNNY      6  -2  69 NW10      30.68R WCI  -9
NORTON         SUNNY      3  -8  60 W12       30.63S WCI -13
PHILLIPSBURG   SUNNY      9   0  66 W10       30.68R WCI  -6
SMITH CENTER   SUNNY      7   1  78 W9        30.68R WCI  -7
BELOIT         SUNNY     10   1  67 W12       30.68R WCI  -4
HAYS           SUNNY     10   2  69 NW8       30.69R WCI  -2
RUSSELL        SUNNY     10   2  69 NW16      30.67R WCI  -7
CONCORDIA      SUNNY     11   4  73 W13       30.66R WCI  -4
SALINA         SUNNY     15   4  61 NW14      30.69R WCI   0
TOPEKA         SUNNY     16   6  65 NW17G24   30.64R WCI   0



USA.gov is the U.S. government's official web portal to all federal, state and local government web resources and services.